QPF
0.02 0.02 0.02 0.02 0.02 0.02 0.03 0.03 0.03 0.03 0.03 0.03 0.03 0.04 0.06 0.04 0.03 0.02 0.01 0.01 0.01 0.01 0.00 0.01 0.01 0.01 0.01 0.01 0.01 0.02 0.02 0.03 0.04 0.06 0.06 0.06 0.05 0.04
0.02 0.02 0.02 0.01 0.01 0.02 0.02 0.02 0.02 0.02 0.02 0.01 0.01 0.02 0.04 0.04 0.03 0.03 0.02 0.02 0.01 0.01 0.02 0.02 0.02 0.01 0.01 0.01 0.01 0.01 0.02 0.02 0.02 0.04 0.05 0.05 0.05 0.04
0.02 0.02 0.02 0.02 0.02 0.02 0.02 0.02 0.02 0.02 0.02 0.01 0.01 0.01 0.02 0.03 0.02 0.02 0.02 0.02 0.01 0.01 0.01 0.01 0.01 0.02 0.02 0.02 0.03 0.03 0.03 0.03 0.03 0.04 0.04 0.04 0.04 0.05
0.01 0.01 0.02 0.02 0.02 0.02 0.02 0.02 0.03 0.03 0.02 0.02 0.01 0.01 0.02 0.02 0.02 0.01 0.01 0.02 0.02 0.01 0.01 0.01 0.01 0.01 0.02 0.02 0.03 0.04 0.05 0.05 0.04 0.03 0.03 0.03 0.03 0.04
0.03 0.03 0.03 0.03 0.03 0.03 0.03 0.03 0.03 0.03 0.03 0.03 0.03 0.02 0.02 0.02 0.02 0.01 0.01 0.02 0.01 0.01 0.01 0.01 0.01 0.01 0.01 0.02 0.02 0.02 0.02 0.02 0.02 0.02 0.03 0.03 0.02 0.02
0.02 0.03 0.03 0.03 0.04 0.04 0.05 0.05 0.05 0.04 0.04 0.04 0.04 0.03 0.03 0.03 0.03 0.02 0.02 0.03 0.02 0.01 0.01 0.01 0.01 0.01 0.01 0.01 0.01 0.01 0.01 0.02 0.01 0.02 0.02 0.02 0.02 0.02
0.01 0.01 0.02 0.03 0.04 0.03 0.03 0.04 0.05 0.05 0.04 0.04 0.05 0.05 0.04 0.04 0.04 0.03 0.02 0.02 0.02 0.01 0.01 0.01 0.02 0.02 0.01 0.01 0.01 0.01 0.01 0.01 0.01 0.02 0.01 0.01 0.02 0.02
0.01 0.01 0.02 0.03 0.04 0.03 0.03 0.03 0.04 0.04 0.03 0.03 0.03 0.04 0.03 0.03 0.04 0.04 0.03 0.03 0.03 0.02 0.02 0.02 0.02 0.03 0.02 0.01 0.01 0.01 0.00 0.01 0.01 0.02 0.02 0.01 0.01 0.02
0.02 0.02 0.02 0.03 0.04 0.05 0.04 0.04 0.04 0.03 0.03 0.03 0.02 0.03 0.03 0.03 0.04 0.04 0.04 0.04 0.04 0.03 0.03 0.04 0.03 0.03 0.02 0.01 0.01 0.01 0.01 0.01 0.01 0.01 0.02 0.02 0.02 0.02
0.03 0.03 0.03 0.04 0.05 0.06 0.07 0.06 0.05 0.04 0.03 0.03 0.02 0.02 0.03 0.03 0.04 0.04 0.05 0.04 0.04 0.04 0.04 0.05 0.04 0.03 0.03 0.02 0.01 0.01 0.01 0.01 0.00 0.00 0.01 0.02 0.03 0.02
0.03 0.03 0.04 0.04 0.05 0.06 0.06 0.06 0.05 0.04 0.02 0.02 0.02 0.02 0.03 0.04 0.05 0.06 0.05 0.05 0.04 0.04 0.05 0.05 0.04 0.02 0.02 0.02 0.01 0.01 0.01 0.01 0.01 0.01 0.01 0.01 0.01 0.01
0.04 0.04 0.04 0.04 0.04 0.05 0.05 0.04 0.04 0.02 0.02 0.02 0.02 0.02 0.02 0.04 0.06 0.06 0.05 0.04 0.04 0.04 0.05 0.06 0.07 0.04 0.02 0.01 0.01 0.01 0.02 0.02 0.01 0.01 0.01 0.01 0.00 0.01
0.06 0.06 0.05 0.05 0.05 0.05 0.04 0.04 0.03 0.02 0.02 0.03 0.03 0.02 0.02 0.03 0.05 0.05 0.04 0.04 0.04 0.04 0.04 0.05 0.05 0.04 0.03 0.02 0.02 0.02 0.02 0.02 0.02 0.02 0.01 0.01 0.01 0.01
0.05 0.05 0.05 0.05 0.04 0.04 0.03 0.03 0.03 0.02 0.02 0.03 0.03 0.03 0.02 0.03 0.03 0.04 0.05 0.04 0.03 0.03 0.05 0.05 0.03 0.03 0.03 0.03 0.03 0.02 0.02 0.02 0.02 0.02 0.01 0.01 0.01 0.01
0.06 0.05 0.05 0.04 0.03 0.02 0.02 0.03 0.02 0.02 0.02 0.02 0.03 0.02 0.02 0.03 0.03 0.03 0.04 0.04 0.03 0.02 0.02 0.03 0.02 0.03 0.03 0.03 0.03 0.02 0.02 0.02 0.02 0.02 0.02 0.02 0.02 0.02
0.06 0.05 0.04 0.03 0.02 0.02 0.02 0.03 0.02 0.02 0.02 0.03 0.03 0.02 0.02 0.02 0.02 0.02 0.02 0.03 0.03 0.02 0.01 0.01 0.02 0.03 0.04 0.03 0.03 0.04 0.03 0.02 0.03 0.03 0.03 0.03 0.03 0.02
0.05 0.04 0.03 0.03 0.02 0.02 0.02 0.02 0.02 0.01 0.02 0.02 0.02 0.02 0.02 0.02 0.02 0.01 0.01 0.02 0.02 0.02 0.02 0.02 0.02 0.02 0.02 0.03 0.03 0.03 0.03 0.03 0.03 0.03 0.03 0.03 0.03 0.03
0.03 0.03 0.03 0.02 0.02 0.02 0.01 0.01 0.01 0.01 0.01 0.01 0.01 0.01 0.02 0.02 0.02 0.02 0.02 0.02 0.02 0.02 0.02 0.02 0.02 0.02 0.02 0.03 0.02 0.02 0.02 0.02 0.02 0.02 0.02 0.02 0.02 0.03
0.02 0.01 0.02 0.04 0.04 0.03 0.02 0.01 0.02 0.02 0.02 0.01 0.01 0.01 0.02 0.02 0.02 0.02 0.02 0.02 0.02 0.02 0.02 0.02 0.02 0.02 0.02 0.02 0.02 0.02 0.02 0.02 0.03 0.02 0.02 0.02 0.03 0.04
0.01 0.01 0.02 0.03 0.04 0.04 0.03 0.02 0.02 0.02 0.02 0.02 0.01 0.01 0.02 0.02 0.02 0.02 0.02 0.02 0.02 0.02 0.02 0.02 0.02 0.01 0.02 0.02 0.02 0.02 0.02 0.02 0.03 0.03 0.03 0.03 0.03 0.04
0.01 0.01 0.02 0.02 0.02 0.02 0.02 0.02 0.02 0.01 0.01 0.01 0.01 0.01 0.01 0.01 0.01 0.01 0.02 0.01 0.01 0.01 0.01 0.01 0.01 0.01 0.01 0.02 0.02 0.02 0.02 0.03 0.03 0.03 0.04 0.04 0.05 0.05
0.01 0.02 0.02 0.02 0.02 0.02 0.01 0.01 0.01 0.01 0.01 0.01 0.01 0.00 0.00 0.01 0.01 0.01 0.02 0.02 0.01 0.01 0.01 0.01 0.01 0.01 0.01 0.02 0.02 0.02 0.03 0.03 0.04 0.03 0.03 0.03 0.04 0.05
0.01 0.01 0.01 0.01 0.01 0.01 0.01 0.01 0.01 0.01 0.01 0.01 0.00 0.01 0.01 0.01 0.01 0.01 0.01 0.02 0.01 0.01 0.01 0.01 0.01 0.01 0.01 0.02 0.02 0.03 0.03 0.03 0.03 0.04 0.04 0.04 0.04 0.04
MSLP
1014.14 1014.26 1014.36 1014.43 1014.43 1014.33 1014.10 1013.75 1013.27 1012.70 1012.06 1011.39 1010.75 1010.16 1009.66 1009.26 1008.95 1008.73 1008.57 1008.44 1008.32 1008.20 1008.05 1007.88 1007.69 1007.48 1007.25 1007.02 1006.78 1006.52 1006.24 1005.95 1005.63 1005.30 1004.98 1004.69 1004.45 1004.29
1013.92 1014.02 1014.11 1014.16 1014.15 1014.05 1013.84 1013.52 1013.08 1012.55 1011.95 1011.32 1010.69 1010.11 1009.58 1009.13 1008.76 1008.44 1008.19 1007.96 1007.76 1007.56 1007.37 1007.19 1007.01 1006.84 1006.69 1006.54 1006.39 1006.23 1006.04 1005.83 1005.58 1005.30 1005.02 1004.74 1004.49 1004.30
1013.67 1013.74 1013.80 1013.84 1013.82 1013.73 1013.54 1013.26 1012.87 1012.39 1011.85 1011.28 1010.69 1010.12 1009.59 1009.10 1008.66 1008.26 1007.90 1007.57 1007.27 1006.99 1006.74 1006.52 1006.33 1006.19 1006.09 1006.02 1005.97 1005.91 1005.83 1005.72 1005.56 1005.35 1005.11 1004.86 1004.61 1004.39
1013.46 1013.50 1013.53 1013.55 1013.53 1013.45 1013.29 1013.04 1012.71 1012.30 1011.83 1011.31 1010.78 1010.24 1009.71 1009.20 1008.70 1008.23 1007.78 1007.35 1006.95 1006.58 1006.25 1005.97 1005.77 1005.63 1005.56 1005.54 1005.56 1005.59 1005.61 1005.59 1005.51 1005.38 1005.18 1004.95 1004.69 1004.43
1013.33 1013.34 1013.35 1013.35 1013.32 1013.25 1013.12 1012.92 1012.64 1012.29 1011.89 1011.44 1010.96 1010.45 1009.94 1009.42 1008.90 1008.38 1007.86 1007.34 1006.85 1006.39 1005.99 1005.65 1005.40 1005.23 1005.16 1005.16 1005.22 1005.30 1005.37 1005.41 1005.39 1005.30 1005.14 1004.91 1004.64 1004.33
1013.28 1013.27 1013.26 1013.24 1013.21 1013.15 1013.04 1012.88 1012.65 1012.36 1012.02 1011.63 1011.20 1010.74 1010.26 1009.75 1009.22 1008.68 1008.12 1007.55 1007.00 1006.47 1005.99 1005.58 1005.27 1005.05 1004.93 1004.91 1004.95 1005.03 1005.11 1005.16 1005.16 1005.08 1004.92 1004.68 1004.38 1004.03
1013.29 1013.25 1013.23 1013.20 1013.17 1013.12 1013.03 1012.89 1012.70 1012.46 1012.17 1011.83 1011.45 1011.04 1010.60 1010.13 1009.62 1009.08 1008.52 1007.93 1007.34 1006.77 1006.23 1005.76 1005.37 1005.07 1004.88 1004.79 1004.76 1004.79 1004.83 1004.84 1004.81 1004.70 1004.51 1004.24 1003.89 1003.50
1013.29 1013.24 1013.21 1013.18 1013.15 1013.09 1013.01 1012.90 1012.73 1012.53 1012.27 1011.98 1011.66 1011.30 1010.90 1010.48 1010.02 1009.52 1008.98 1008.41 1007.82 1007.23 1006.65 1006.12 1005.65 1005.27 1004.98 1004.78 1004.66 1004.59 1004.53 1004.47 1004.36 1004.18 1003.94 1003.61 1003.23 1002.80
1013.24 1013.19 1013.15 1013.12 1013.08 1013.03 1012.96 1012.85 1012.70 1012.52 1012.29 1012.03 1011.75 1011.44 1011.11 1010.75 1010.35 1009.91 1009.43 1008.90 1008.34 1007.75 1007.16 1006.59 1006.05 1005.59 1005.19 1004.88 1004.63 1004.43 1004.25 1004.08 1003.86 1003.60 1003.28 1002.90 1002.48 1002.02
1013.12 1013.07 1013.03 1013.00 1012.96 1012.91 1012.83 1012.72 1012.58 1012.40 1012.20 1011.96 1011.72 1011.46 1011.18 1010.88 1010.56 1010.20 1009.79 1009.32 1008.81 1008.25 1007.66 1007.07 1006.49 1005.95 1005.47 1005.04 1004.67 1004.34 1004.04 1003.73 1003.42 1003.06 1002.66 1002.22 1001.76 1001.28
1012.93 1012.89 1012.86 1012.82 1012.78 1012.72 1012.64 1012.52 1012.38 1012.20 1012.00 1011.79 1011.57 1011.35 1011.13 1010.90 1010.64 1010.35 1010.02 1009.63 1009.17 1008.65 1008.09 1007.50 1006.90 1006.31 1005.75 1005.24 1004.76 1004.33 1003.92 1003.51 1003.09 1002.65 1002.19 1001.70 1001.20 1000.71
1012.74 1012.70 1012.66 1012.62 1012.57 1012.50 1012.41 1012.28 1012.13 1011.95 1011.76 1011.56 1011.36 1011.18 1011.00 1010.81 1010.62 1010.39 1010.12 1009.80 1009.40 1008.93 1008.40 1007.83 1007.23 1006.62 1006.02 1005.45 1004.91 1004.40 1003.91 1003.43 1002.94 1002.44 1001.92 1001.40 1000.88 1000.39
1012.57 1012.52 1012.48 1012.42 1012.36 1012.27 1012.16 1012.03 1011.87 1011.69 1011.50 1011.32 1011.14 1010.98 1010.83 1010.68 1010.53 1010.35 1010.13 1009.85 1009.50 1009.08 1008.58 1008.04 1007.45 1006.85 1006.24 1005.66 1005.09 1004.55 1004.02 1003.50 1002.97 1002.44 1001.90 1001.36 1000.83 1000.33
1012.43 1012.37 1012.31 1012.24 1012.15 1012.05 1011.92 1011.78 1011.62 1011.44 1011.27 1011.10 1010.94 1010.80 1010.67 1010.55 1010.42 1010.27 1010.08 1009.83 1009.51 1009.11 1008.65 1008.13 1007.57 1006.99 1006.41 1005.83 1005.28 1004.74 1004.21 1003.69 1003.16 1002.63 1002.08 1001.54 1001.02 1000.52
1012.32 1012.23 1012.14 1012.04 1011.93 1011.81 1011.68 1011.54 1011.39 1011.23 1011.07 1010.92 1010.78 1010.66 1010.55 1010.45 1010.33 1010.19 1010.00 1009.76 1009.45 1009.07 1008.62 1008.12 1007.60 1007.05 1006.50 1005.96 1005.44 1004.93 1004.44 1003.94 1003.44 1002.93 1002.40 1001.87 1001.35 1000.85
1012.16 1012.04 1011.92 1011.80 1011.67 1011.54 1011.41 1011.28 1011.15 1011.02 1010.89 1010.78 1010.67 1010.57 1010.48 1010.38 1010.27 1010.12 1009.92 1009.67 1009.35 1008.97 1008.53 1008.05 1007.55 1007.03 1006.52 1006.03 1005.55 1005.10 1004.65 1004.20 1003.74 1003.26 1002.76 1002.25 1001.74 1001.24
1011.89 1011.74 1011.60 1011.45 1011.32 1011.20 1011.09 1010.98 1010.89 1010.80 1010.72 1010.65 1010.58 1010.52 1010.44 1010.35 1010.23 1010.07 1009.86 1009.59 1009.25 1008.86 1008.42 1007.95 1007.46 1006.97 1006.50 1006.05 1005.62 1005.22 1004.82 1004.41 1004.00 1003.56 1003.09 1002.60 1002.10 1001.59
1011.47 1011.30 1011.13 1010.99 1010.87 1010.77 1010.69 1010.64 1010.59 1010.56 1010.54 1010.52 1010.50 1010.47 1010.42 1010.33 1010.21 1010.04 1009.81 1009.52 1009.16 1008.76 1008.32 1007.85 1007.38 1006.91 1006.47 1006.05 1005.67 1005.30 1004.94 1004.58 1004.20 1003.78 1003.34 1002.86 1002.36 1001.84
1010.88 1010.71 1010.55 1010.42 1010.33 1010.27 1010.25 1010.25 1010.28 1010.31 1010.35 1010.39 1010.41 1010.42 1010.39 1010.31 1010.19 1010.01 1009.77 1009.46 1009.10 1008.69 1008.25 1007.79 1007.33 1006.89 1006.47 1006.08 1005.73 1005.39 1005.05 1004.71 1004.35 1003.95 1003.50 1003.02 1002.50 1001.96
1010.19 1010.03 1009.90 1009.81 1009.76 1009.76 1009.80 1009.88 1009.97 1010.07 1010.17 1010.26 1010.33 1010.36 1010.35 1010.28 1010.16 1009.98 1009.74 1009.43 1009.07 1008.67 1008.24 1007.80 1007.37 1006.95 1006.55 1006.19 1005.85 1005.52 1005.20 1004.86 1004.49 1004.08 1003.62 1003.11 1002.56 1001.97
1009.47 1009.34 1009.25 1009.22 1009.24 1009.31 1009.42 1009.56 1009.72 1009.88 1010.03 1010.16 1010.26 1010.31 1010.31 1010.25 1010.13 1009.95 1009.71 1009.42 1009.08 1008.70 1008.30 1007.90 1007.49 1007.11 1006.74 1006.40 1006.07 1005.74 1005.41 1005.06 1004.67 1004.22 1003.73 1003.17 1002.57 1001.92
1008.82 1008.74 1008.71 1008.74 1008.82 1008.96 1009.14 1009.34 1009.56 1009.77 1009.96 1010.11 1010.22 1010.28 1010.28 1010.22 1010.10 1009.93 1009.70 1009.43 1009.12 1008.79 1008.43 1008.07 1007.72 1007.37 1007.04 1006.72 1006.40 1006.07 1005.72 1005.34 1004.91 1004.43 1003.88 1003.26 1002.59 1001.87
1008.33 1008.30 1008.32 1008.41 1008.56 1008.76 1009.00 1009.25 1009.51 1009.75 1009.95 1010.11 1010.22 1010.27 1010.27 1010.20 1010.08 1009.91 1009.71 1009.46 1009.20 1008.91 1008.62 1008.32 1008.02 1007.73 1007.44 1007.14 1006.83 1006.50 1006.13 1005.72 1005.25 1004.70 1004.09 1003.41 1002.67 1001.88
Thickness
5661 5659 5658 5659 5659 5660 5659 5659 5657 5655 5655 5656 5655 5655 5652 5651 5648 5646 5645 5642 5639 5637 5636 5635 5634 5634 5633 5632 5631 5631 5629 5628 5628 5628 5628 5629 5630 5631
5655 5653 5653 5655 5655 5655 5655 5655 5654 5652 5650 5651 5650 5649 5645 5645 5642 5640 5638 5636 5634 5631 5629 5628 5627 5626 5625 5625 5625 5624 5623 5622 5621 5621 5621 5621 5622 5623
5651 5651 5649 5648 5650 5651 5651 5650 5650 5648 5644 5646 5646 5644 5639 5636 5635 5634 5633 5632 5630 5626 5623 5621 5619 5618 5618 5617 5617 5616 5615 5615 5614 5614 5614 5614 5615 5616
5648 5647 5646 5646 5644 5645 5644 5644 5643 5641 5639 5637 5638 5637 5634 5632 5629 5628 5629 5628 5625 5622 5618 5615 5613 5611 5610 5609 5609 5608 5608 5607 5607 5607 5607 5607 5607 5608
5646 5644 5643 5642 5640 5641 5639 5639 5639 5638 5636 5633 5633 5632 5631 5629 5626 5625 5625 5621 5621 5619 5614 5611 5608 5606 5604 5603 5601 5601 5600 5599 5599 5599 5598 5598 5599 5599
5642 5641 5640 5639 5637 5636 5635 5634 5633 5632 5631 5630 5629 5628 5626 5625 5621 5620 5619 5618 5616 5615 5611 5608 5605 5601 5599 5598 5596 5594 5593 5592 5591 5591 5590 5590 5590 5591
5639 5638 5637 5634 5631 5630 5631 5630 5628 5627 5627 5626 5624 5623 5622 5618 5616 5615 5613 5611 5611 5609 5607 5605 5602 5600 5597 5594 5591 5588 5586 5585 5584 5583 5582 5582 5582 5583
5636 5635 5634 5632 5629 5626 5624 5622 5620 5620 5621 5619 5619 5616 5614 5613 5610 5608 5607 5605 5603 5604 5600 5599 5598 5595 5594 5591 5586 5583 5580 5578 5576 5576 5575 5574 5574 5575
5632 5631 5633 5633 5628 5628 5624 5620 5617 5614 5610 5611 5612 5609 5609 5608 5604 5602 5599 5597 5595 5596 5593 5592 5592 5589 5588 5585 5581 5577 5574 5571 5570 5569 5568 5568 5567 5567
5630 5629 5628 5627 5626 5623 5622 5621 5618 5615 5610 5607 5606 5604 5603 5601 5597 5595 5593 5591 5592 5592 5588 5586 5586 5584 5583 5580 5575 5572 5569 5566 5564 5563 5562 5561 5561 5561
5629 5627 5625 5624 5619 5616 5616 5616 5615 5613 5609 5605 5601 5599 5596 5593 5590 5589 5588 5587 5588 5588 5585 5581 5581 5579 5578 5576 5572 5567 5565 5562 5560 5558 5556 5555 5555 5555
5628 5626 5622 5619 5615 5612 5612 5612 5610 5609 5606 5604 5599 5596 5594 5591 5587 5584 5584 5583 5583 5582 5581 5577 5575 5574 5572 5572 5569 5565 5561 5558 5555 5553 5551 5550 5549 5550
5627 5626 5623 5615 5612 5609 5607 5607 5605 5602 5602 5601 5600 5597 5595 5592 5588 5585 5582 5579 5577 5576 5576 5571 5570 5568 5566 5565 5563 5561 5558 5556 5553 5550 5548 5546 5545 5544
5623 5623 5620 5612 5609 5606 5604 5602 5599 5597 5600 5599 5598 5596 5594 5591 5587 5583 5579 5576 5573 5571 5568 5565 5564 5561 5560 5559 5557 5555 5553 5551 5549 5548 5547 5543 5542 5540
5620 5616 5612 5609 5607 5606 5601 5599 5597 5598 5598 5597 5595 5594 5592 5588 5585 5581 5577 5574 5571 5569 5566 5561 5559 5557 5555 5553 5552 5549 5547 5546 5544 5543 5542 5541 5540 5539
5618 5615 5610 5607 5605 5603 5602 5600 5600 5599 5597 5595 5594 5592 5590 5587 5584 5581 5577 5573 5570 5568 5564 5559 5556 5553 5551 5549 5547 5545 5543 5541 5540 5538 5537 5537 5537 5536
5615 5615 5615 5613 5610 5608 5605 5603 5601 5598 5596 5594 5592 5590 5588 5585 5582 5579 5573 5571 5568 5565 5563 5559 5555 5551 5548 5544 5543 5542 5540 5538 5536 5534 5532 5533 5532 5531
5610 5614 5613 5611 5609 5607 5605 5602 5600 5597 5594 5592 5590 5588 5585 5582 5579 5576 5572 5568 5565 5562 5560 5558 5554 5550 5547 5545 5538 5538 5537 5535 5533 5531 5529 5528 5528 5527
5610 5612 5611 5609 5607 5604 5602 5600 5598 5595 5592 5590 5588 5585 5582 5579 5575 5572 5568 5565 5562 5560 5558 5555 5551 5547 5544 5543 5540 5532 5533 5532 5531 5529 5528 5526 5525 5523
5611 5610 5609 5607 5605 5602 5600 5597 5595 5592 5589 5587 5584 5581 5578 5575 5572 5569 5566 5561 5559 5556 5555 5552 5548 5545 5541 5539 5538 5534 5529 5529 5528 5527 5526 5523 5521 5518
5612 5610 5608 5605 5603 5601 5598 5595 5591 5589 5586 5583 5581 5577 5575 5573 5569 5566 5563 5557 5554 5553 5551 5549 5545 5539 5539 5537 5535 5534 5531 5525 5523 5521 5521 5521 5520 5518
5610 5608 5606 5603 5600 5598 5595 5593 5590 5587 5583 5580 5578 5575 5572 5569 5566 5562 5560 5557 5554 5552 5549 5547 5543 5540 5538 5536 5534 5532 5530 5526 5522 5518 5515 5513 5513 5512
5608 5606 5604 5601 5599 5596 5593 5591 5588 5585 5582 5579 5576 5572 5569 5566 5563 5561 5559 5556 5553 5549 5547 5544 5542 5539 5537 5534 5532 5529 5527 5526 5524 5522 5518 5512 5507 5503